TimeMDT,TemperatureF,Dew PointF,Humidity,Sea Level PressureIn,VisibilityMPH,Wind Direction,Wind SpeedMPH,Gust SpeedMPH,PrecipitationIn,Events,Conditions,WindDirDegrees,DateUTC
12:48 AM,35.1,24.1,64,30.45,-9999.0,West,3.5,-,N/A,,Unknown,270,2013-05-11 06:48:00
1:48 AM,35.1,24.1,64,30.45,-9999.0,Calm,Calm,-,N/A,,Unknown,0,2013-05-11 07:48:00
2:48 AM,36.0,23.0,59,30.44,-9999.0,NE,6.9,-,N/A,,Unknown,50,2013-05-11 08:48:00
3:48 AM,33.1,21.9,64,30.45,-9999.0,NE,4.6,-,N/A,,Unknown,50,2013-05-11 09:48:00
4:48 AM,28.0,21.0,75,30.46,-9999.0,Calm,Calm,-,N/A,,Unknown,0,2013-05-11 10:48:00
5:48 AM,26.1,21.0,81,30.46,-9999.0,Calm,Calm,-,N/A,,Unknown,0,2013-05-11 11:48:00
6:48 AM,33.1,24.1,70,30.45,-9999.0,Calm,Calm,-,N/A,,Unknown,0,2013-05-11 12:48:00
7:48 AM,43.0,26.1,51,30.43,-9999.0,SE,8.1,-,N/A,,Unknown,130,2013-05-11 13:48:00
8:48 AM,48.9,25.0,39,30.41,-9999.0,ESE,12.7,-,N/A,,Unknown,120,2013-05-11 14:48:00
9:48 AM,54.0,25.0,33,30.38,-9999.0,SE,13.8,-,N/A,,Unknown,130,2013-05-11 15:48:00
10:48 AM,57.9,24.1,27,30.35,-9999.0,SSE,10.4,-,N/A,,Unknown,150,2013-05-11 16:48:00
11:48 AM,61.0,26.1,26,30.32,-9999.0,South,9.2,-,N/A,,Unknown,170,2013-05-11 17:48:00
12:48 PM,64.0,26.1,24,30.28,-9999.0,South,11.5,16.1,N/A,,Unknown,170,2013-05-11 18:48:00
1:48 PM,66.0,26.1,22,30.24,-9999.0,Variable,6.9,-,N/A,,Unknown,0,2013-05-11 19:48:00
2:48 PM,69.1,27.0,21,30.20,-9999.0,SE,4.6,16.1,N/A,,Unknown,140,2013-05-11 20:48:00
3:48 PM,70.0,28.0,21,30.18,-9999.0,SSE,5.8,17.3,N/A,,Unknown,160,2013-05-11 21:48:00
4:48 PM,70.0,28.0,21,30.16,-9999.0,SSE,6.9,18.4,N/A,,Unknown,160,2013-05-11 22:48:00
5:48 PM,71.1,30.0,22,30.13,-9999.0,ESE,8.1,17.3,N/A,,Unknown,120,2013-05-11 23:48:00
6:48 PM,69.1,30.0,23,30.11,-9999.0,SE,10.4,-,N/A,,Unknown,140,2013-05-12 00:48:00
7:48 PM,66.9,32.0,27,30.09,-9999.0,ESE,8.1,-,N/A,,Unknown,120,2013-05-12 01:48:00
8:48 PM,59.0,30.9,35,30.09,-9999.0,ESE,9.2,-,N/A,,Unknown,110,2013-05-12 02:48:00
9:48 PM,57.0,30.0,36,30.10,-9999.0,ESE,10.4,-,N/A,,Unknown,110,2013-05-12 03:48:00
10:48 PM,54.0,27.0,35,30.10,-9999.0,ESE,9.2,-,N/A,,Unknown,110,2013-05-12 04:48:00
11:48 PM,55.0,26.1,33,30.09,-9999.0,East,11.5,-,N/A,,Unknown,90,2013-05-12 05:48:00